Location: Mapua
(41.2500°S, 173.1000°E)
Time: 22:25:27
(UTC+13:00)

Envisat - Visible Passes

Search period start: 16 November 2018 00:00
Search period end: 26 November 2018 00:00
Orbit: 764 x 766 km, 98.2° (Epoch: 16 November)

Date Brightness Start Highest point End Pass type
(mag) Time Alt. Az. Time Alt. Az. Time Alt. Az.
16 Nov 3.3 20:49:25 10° SSE 20:54:25 48° E 20:59:20 10° N visible
16 Nov 5.5 22:29:14 10° SSW 22:33:04 21° WSW 22:36:53 10° WNW visible
17 Nov 4.2 21:51:45 10° S 21:56:39 44° WSW 22:01:28 10° NW visible
18 Nov 3.0 21:14:49 10° SSE 21:20:00 85° ENE 21:25:08 10° NNW visible
18 Nov 6.0 22:56:03 10° SSW 22:58:17 13° WSW 23:00:30 10° W visible
19 Nov 5.2 22:17:45 10° S 22:22:00 26° WSW 22:26:12 10° WNW visible
20 Nov 3.8 21:40:28 10° S 21:45:30 56° WSW 21:50:29 10° NNW visible
21 Nov 3.0 21:03:40 10° SSE 21:08:49 67° ENE 21:13:53 10° N visible
21 Nov 5.8 22:44:11 10° SSW 22:47:15 16° WSW 22:50:17 10° W visible
22 Nov 4.8 22:06:20 10° S 22:10:54 33° WSW 22:15:25 10° NW visible
23 Nov 3.4 21:29:12 10° S 21:34:21 71° WSW 21:39:26 10° NNW visible
24 Nov 5.7 22:32:33 10° SSW 22:36:11 20° WSW 22:39:49 10° WNW visible
25 Nov 4.4 21:54:59 10° S 21:59:47 40° WSW 22:04:32 10° NW visible
